Location: Châteauvieux
(47.2310°N, 1.3828°E)
Time: 23:45:13
(UTC+00:00)

Okean O Rocket - Pass Details

Date: 15 May 2026
Orbit: 614 x 633 km, 98.0° (Epoch: 9 June)

Event Time Altitude Azimuth Distance (km) Brightness Sun altitude
Exits shadow 21:29:48 11° 205° (SSW) 1,934 3.8 -16.5°
Maximum altitude 21:33:26 29° 265° (W) 1,141 3.2 -16.9°
Drops below altitude 10° 21:37:12 10° 325° (NW) 1,984 5.5 -17.2°
Sets 21:39:38 0° 337° (NNW) 2,896 6.6 -17.5°
